BCS18NX EDDK-EGNX

Flight info

Callsign BCS18NX
Flight time 1h 0m
Altitude 34000
Route NVO3B NVO Y868 NAVAK DCT DENUT L610 HEMEL
Aircraft A306/H-SDE3FGHIRWY/LB1

Departure

Time 2026-04-26 17:53
Airport Cologne Bonn Airport (EDDK)

Arrival

Time 2026-04-26 18:54
Airport East Midlands Airport (EGNX)
Time Latitude Longitude Altitude Speed Heading
2026-04-26 17:10 50.87627 7.12688 238 ft 0 kts 227°
2026-04-26 17:41 50.87638 7.12706 238 ft 4 kts 215°
2026-04-26 17:41 50.87662 7.12723 238 ft 4 kts 184°
2026-04-26 17:41 50.87687 7.12717 238 ft 4 kts 147°
2026-04-26 17:41 50.87689 7.12716 238 ft 4 kts 139°
2026-04-26 17:42 50.87674 7.12738 238 ft 0 kts 137°
2026-04-26 17:45 50.87670 7.12750 238 ft 3 kts 117°
2026-04-26 17:45 50.87655 7.12804 238 ft 7 kts 114°
2026-04-26 17:45 50.87639 7.12867 238 ft 5 kts 113°
2026-04-26 17:45 50.87603 7.12937 238 ft 13 kts 136°
2026-04-26 17:46 50.87526 7.13051 238 ft 18 kts 137°
2026-04-26 17:46 50.87433 7.13184 238 ft 17 kts 138°
2026-04-26 17:46 50.87345 7.13314 238 ft 20 kts 136°
2026-04-26 17:46 50.87237 7.13473 241 ft 20 kts 137°
2026-04-26 17:47 50.87142 7.13611 244 ft 18 kts 138°
2026-04-26 17:47 50.87072 7.13711 247 ft 20 kts 138°
2026-04-26 17:47 50.86947 7.13887 254 ft 15 kts 139°
2026-04-26 17:47 50.86883 7.13979 260 ft 10 kts 137°
2026-04-26 17:48 50.86826 7.14062 261 ft 12 kts 136°
2026-04-26 17:48 50.86762 7.14126 261 ft 10 kts 164°
2026-04-26 17:48 50.86709 7.14166 263 ft 8 kts 144°
2026-04-26 17:48 50.86625 7.14294 267 ft 26 kts 138°
2026-04-26 17:49 50.86493 7.14490 272 ft 23 kts 137°
2026-04-26 17:49 50.86381 7.14651 279 ft 20 kts 138°
2026-04-26 17:49 50.86273 7.14806 285 ft 23 kts 137°
2026-04-26 17:49 50.86147 7.14988 297 ft 26 kts 137°
2026-04-26 17:50 50.86023 7.15171 299 ft 23 kts 137°
2026-04-26 17:50 50.85904 7.15344 303 ft 24 kts 137°
2026-04-26 17:50 50.85780 7.15527 305 ft 25 kts 138°
2026-04-26 17:50 50.85653 7.15709 310 ft 25 kts 139°
2026-04-26 17:51 50.85521 7.15899 314 ft 28 kts 137°
2026-04-26 17:51 50.85389 7.16090 314 ft 22 kts 134°
2026-04-26 17:51 50.85338 7.16283 314 ft 17 kts 90°
2026-04-26 17:51 50.85383 7.16443 317 ft 15 kts 45°
2026-04-26 17:52 50.85469 7.16513 314 ft 13 kts 10°
2026-04-26 17:52 50.85568 7.16495 314 ft 14 kts 326°
2026-04-26 17:52 50.85672 7.16346 317 ft 30 kts 317°
2026-04-26 17:52 50.85977 7.15907 307 ft 91 kts 316°
2026-04-26 17:53 50.86585 7.15027 282 ft 144 kts 317°
2026-04-26 17:53 50.87431 7.13789 422 ft 177 kts 317°
2026-04-26 17:53 50.88275 7.12456 1278 ft 174 kts 317°
2026-04-26 17:54 50.90198 7.09760 2540 ft 197 kts 323°
2026-04-26 17:54 50.91147 7.08167 3253 ft 204 kts 297°
2026-04-26 17:54 50.91243 7.05931 3947 ft 211 kts 256°
2026-04-26 17:54 50.90763 7.03693 4543 ft 222 kts 253°
2026-04-26 17:55 50.90264 7.01252 4924 ft 247 kts 253°
2026-04-26 17:55 50.89714 6.98569 5001 ft 261 kts 253°
2026-04-26 17:55 50.89139 6.95822 5004 ft 263 kts 253°
2026-04-26 17:55 50.88561 6.93078 5004 ft 263 kts 253°
2026-04-26 17:56 50.87979 6.90338 5008 ft 263 kts 253°
2026-04-26 17:56 50.86815 6.84863 5809 ft 264 kts 253°
2026-04-26 17:57 50.85636 6.79346 7725 ft 266 kts 254°
2026-04-26 17:57 50.85040 6.76555 8621 ft 270 kts 254°
2026-04-26 17:57 50.84432 6.73716 9476 ft 275 kts 254°
2026-04-26 17:57 50.83813 6.70831 10307 ft 279 kts 254°
2026-04-26 17:58 50.82277 6.61173 11402 ft 328 kts 268°
2026-04-26 17:59 50.82254 6.53669 11988 ft 357 kts 273°
2026-04-26 17:59 50.82344 6.49707 12469 ft 364 kts 274°
2026-04-26 17:59 50.82441 6.45674 13050 ft 369 kts 274°
2026-04-26 17:59 50.82526 6.41596 13644 ft 373 kts 273°
2026-04-26 18:00 50.82596 6.37468 14224 ft 377 kts 273°
2026-04-26 18:00 50.82652 6.33313 14773 ft 380 kts 273°
2026-04-26 18:00 50.82701 6.29120 15335 ft 382 kts 272°
2026-04-26 18:00 50.82744 6.24902 15901 ft 385 kts 272°
2026-04-26 18:01 50.82786 6.20644 16462 ft 388 kts 272°
2026-04-26 18:01 50.82826 6.16356 17021 ft 391 kts 272°
2026-04-26 18:01 50.82865 6.12054 17605 ft 394 kts 272°
2026-04-26 18:01 50.82905 6.07698 18143 ft 397 kts 272°
2026-04-26 18:02 50.82944 6.03319 18657 ft 400 kts 272°
2026-04-26 18:02 50.82950 6.01888 18809 ft 401 kts 272°
2026-04-26 18:02 50.82963 5.94471 19574 ft 404 kts 275°
2026-04-26 18:02 50.83320 5.90069 20030 ft 404 kts 282°
2026-04-26 18:03 50.83947 5.85722 20485 ft 406 kts 285°
2026-04-26 18:03 50.84686 5.81405 20923 ft 408 kts 287°
2026-04-26 18:03 50.85492 5.77092 21366 ft 410 kts 288°
2026-04-26 18:03 50.86321 5.72823 21805 ft 412 kts 288°
2026-04-26 18:04 50.87168 5.68488 22215 ft 414 kts 288°
2026-04-26 18:04 50.88017 5.64123 22630 ft 416 kts 288°
2026-04-26 18:04 50.88863 5.59723 22995 ft 419 kts 288°
2026-04-26 18:05 50.90548 5.50839 23771 ft 423 kts 287°
2026-04-26 18:05 50.91389 5.46358 24080 ft 425 kts 287°
2026-04-26 18:05 50.92232 5.41853 24413 ft 427 kts 287°
2026-04-26 18:05 50.93077 5.37326 24747 ft 428 kts 287°
2026-04-26 18:06 50.93921 5.32796 25053 ft 429 kts 287°
2026-04-26 18:06 50.94767 5.28244 25350 ft 431 kts 287°
2026-04-26 18:06 50.95611 5.23691 25755 ft 429 kts 287°
2026-04-26 18:06 50.96450 5.19150 26182 ft 427 kts 287°
2026-04-26 18:07 50.97285 5.14628 26572 ft 426 kts 287°
2026-04-26 18:07 50.98117 5.10106 26848 ft 428 kts 287°
2026-04-26 18:07 50.98951 5.05566 27152 ft 429 kts 287°
2026-04-26 18:07 50.99503 5.02554 27387 ft 429 kts 287°
2026-04-26 18:08 51.00611 4.96487 27927 ft 427 kts 287°
2026-04-26 18:08 51.01436 4.91963 28344 ft 425 kts 287°
2026-04-26 18:08 51.02254 4.87461 28758 ft 423 kts 287°
2026-04-26 18:08 51.03058 4.83030 29170 ft 421 kts 287°
2026-04-26 18:09 51.03864 4.78570 29592 ft 420 kts 287°
2026-04-26 18:09 51.04668 4.74116 30011 ft 418 kts 287°
2026-04-26 18:09 51.05466 4.69689 30351 ft 418 kts 286°
2026-04-26 18:09 51.06264 4.65244 30608 ft 418 kts 286°
2026-04-26 18:10 51.07060 4.60802 30916 ft 417 kts 286°
2026-04-26 18:10 51.07852 4.56371 31261 ft 416 kts 286°
2026-04-26 18:10 51.08641 4.51946 31597 ft 415 kts 286°
2026-04-26 18:10 51.09423 4.47548 31929 ft 414 kts 286°
2026-04-26 18:11 51.10205 4.43138 32253 ft 413 kts 286°
2026-04-26 18:11 51.10982 4.38748 32580 ft 412 kts 287°
2026-04-26 18:11 51.11758 4.34355 32903 ft 411 kts 287°
2026-04-26 18:11 51.12528 4.29981 33234 ft 410 kts 287°
2026-04-26 18:12 51.13293 4.25627 33557 ft 409 kts 287°
2026-04-26 18:12 51.14056 4.21273 33882 ft 408 kts 287°
2026-04-26 18:12 51.14816 4.16924 34190 ft 407 kts 287°
2026-04-26 18:13 51.16331 4.08228 34264 ft 407 kts 287°
2026-04-26 18:13 51.17838 3.99530 34267 ft 407 kts 287°
2026-04-26 18:14 51.19337 3.90841 34274 ft 407 kts 286°
2026-04-26 18:14 51.20831 3.82134 34273 ft 407 kts 286°
2026-04-26 18:15 51.22309 3.73486 34274 ft 407 kts 286°
2026-04-26 18:15 51.23770 3.64754 34274 ft 407 kts 284°
2026-04-26 18:16 51.25002 3.55934 34285 ft 408 kts 282°
2026-04-26 18:16 51.26712 3.42611 34291 ft 410 kts 282°
2026-04-26 18:17 51.27672 3.35151 34288 ft 414 kts 282°
2026-04-26 18:17 51.28829 3.26119 34291 ft 415 kts 282°
2026-04-26 18:18 51.29984 3.17079 34296 ft 415 kts 282°
2026-04-26 18:18 51.31132 3.08041 34297 ft 415 kts 282°
2026-04-26 18:19 51.32275 2.98981 34294 ft 415 kts 282°
2026-04-26 18:19 51.33409 2.89927 34305 ft 415 kts 282°
2026-04-26 18:20 51.34530 2.80927 34305 ft 416 kts 281°
2026-04-26 18:20 51.35471 2.73320 34307 ft 416 kts 281°
2026-04-26 18:21 51.36775 2.62751 34306 ft 416 kts 281°
2026-04-26 18:21 51.37890 2.53660 34305 ft 417 kts 281°
2026-04-26 18:22 51.38999 2.44554 34304 ft 416 kts 281°
2026-04-26 18:22 51.40099 2.35455 34304 ft 417 kts 281°
2026-04-26 18:23 51.41194 2.26345 34304 ft 417 kts 281°
2026-04-26 18:23 51.42307 2.17192 34304 ft 417 kts 281°
2026-04-26 18:24 51.43415 2.08113 34302 ft 418 kts 281°
2026-04-26 18:24 51.44521 1.98969 34301 ft 418 kts 281°
2026-04-26 18:25 51.45605 1.89824 34300 ft 417 kts 280°
2026-04-26 18:25 51.46670 1.80681 34302 ft 417 kts 280°
2026-04-26 18:26 51.47725 1.71524 34303 ft 417 kts 280°
2026-04-26 18:26 51.48773 1.62368 34303 ft 417 kts 280°
2026-04-26 18:27 51.49810 1.53257 34303 ft 417 kts 280°
2026-04-26 18:27 51.50846 1.44090 34302 ft 417 kts 279°
2026-04-26 18:28 51.51875 1.34917 34304 ft 418 kts 279°
2026-04-26 18:28 51.52898 1.25733 34309 ft 418 kts 279°
2026-04-26 18:29 51.53926 1.16536 34305 ft 418 kts 281°
2026-04-26 18:29 51.55830 1.07721 34305 ft 420 kts 296°
2026-04-26 18:30 51.58734 0.99548 34307 ft 421 kts 298°
2026-04-26 18:30 51.61727 0.91447 34317 ft 422 kts 298°
2026-04-26 18:31 51.64724 0.83319 34322 ft 422 kts 298°
2026-04-26 18:31 51.67714 0.75182 34319 ft 422 kts 298°
2026-04-26 18:32 51.70699 0.67036 34317 ft 422 kts 298°
2026-04-26 18:32 51.73683 0.58863 34314 ft 422 kts 298°
2026-04-26 18:33 51.76657 0.50691 34298 ft 422 kts 298°
2026-04-26 18:33 51.79630 0.42493 34293 ft 423 kts 298°
2026-04-26 18:34 51.82580 0.34338 34298 ft 423 kts 298°
2026-04-26 18:34 51.85542 0.26119 34293 ft 423 kts 298°
2026-04-26 18:35 51.88499 0.17890 34290 ft 423 kts 298°
2026-04-26 18:35 51.91445 0.09664 33629 ft 421 kts 298°
2026-04-26 18:36 51.92912 0.05556 32859 ft 422 kts 298°
2026-04-26 18:36 51.94383 0.01432 32066 ft 423 kts 298°
2026-04-26 18:36 51.95855 -0.02705 31259 ft 425 kts 298°
2026-04-26 18:36 51.97335 -0.06867 30491 ft 425 kts 298°
2026-04-26 18:37 51.98809 -0.11020 29699 ft 424 kts 298°
2026-04-26 18:37 52.00275 -0.15156 28915 ft 422 kts 298°
2026-04-26 18:37 52.01735 -0.19284 28063 ft 422 kts 298°
2026-04-26 18:37 52.03192 -0.23410 27355 ft 419 kts 298°
2026-04-26 18:38 52.04636 -0.27505 26761 ft 415 kts 298°
2026-04-26 18:38 52.06059 -0.31548 26153 ft 411 kts 298°
2026-04-26 18:38 52.07467 -0.35554 25645 ft 405 kts 298°
2026-04-26 18:38 52.08855 -0.39507 25102 ft 401 kts 298°
2026-04-26 18:39 52.10233 -0.43440 24559 ft 398 kts 297°
2026-04-26 18:39 52.11594 -0.47333 24045 ft 395 kts 297°
2026-04-26 18:39 52.12948 -0.51210 23449 ft 393 kts 297°
2026-04-26 18:39 52.14293 -0.55069 22874 ft 390 kts 297°
2026-04-26 18:40 52.15608 -0.58847 22327 ft 386 kts 297°
2026-04-26 18:40 52.16943 -0.62689 21798 ft 383 kts 298°
2026-04-26 18:40 52.18235 -0.66410 21286 ft 380 kts 298°
2026-04-26 18:40 52.19530 -0.70146 20780 ft 377 kts 298°
2026-04-26 18:41 52.20815 -0.73860 20267 ft 374 kts 298°
2026-04-26 18:41 52.22093 -0.77557 19766 ft 372 kts 298°
2026-04-26 18:41 52.23354 -0.81212 19264 ft 369 kts 298°
2026-04-26 18:41 52.24773 -0.84687 18766 ft 369 kts 310°
2026-04-26 18:42 52.26762 -0.87342 18240 ft 370 kts 324°
2026-04-26 18:42 52.28945 -0.89532 17666 ft 368 kts 327°
2026-04-26 18:42 52.31155 -0.91673 17015 ft 369 kts 327°
2026-04-26 18:42 52.33342 -0.93803 16724 ft 360 kts 327°
2026-04-26 18:43 52.35431 -0.95851 16519 ft 349 kts 326°
2026-04-26 18:43 52.37476 -0.97869 16310 ft 337 kts 326°
2026-04-26 18:43 52.39482 -0.99739 16081 ft 326 kts 333°
2026-04-26 18:43 52.41655 -1.00655 15775 ft 324 kts 355°
2026-04-26 18:44 52.43888 -1.00197 15355 ft 323 kts 11°
2026-04-26 18:44 52.46058 -0.99269 14881 ft 321 kts 13°
2026-04-26 18:44 52.48206 -0.98290 14421 ft 319 kts 13°
2026-04-26 18:44 52.50336 -0.97325 13971 ft 316 kts 13°
2026-04-26 18:45 52.52407 -0.96395 13793 ft 298 kts 13°
2026-04-26 18:45 52.54354 -0.95549 13425 ft 284 kts 10°
2026-04-26 18:45 52.56276 -0.95498 12867 ft 272 kts 342°
2026-04-26 18:45 52.57867 -0.96982 12316 ft 261 kts 311°
2026-04-26 18:46 52.58818 -0.99447 11738 ft 254 kts 294°
2026-04-26 18:46 52.59650 -1.01994 11168 ft 253 kts 305°
2026-04-26 18:46 52.60999 -1.03833 10573 ft 256 kts 335°
2026-04-26 18:46 52.62741 -1.04264 9999 ft 257 kts
2026-04-26 18:47 52.64472 -1.03585 9447 ft 254 kts 13°
2026-04-26 18:47 52.66184 -1.02924 8905 ft 250 kts
2026-04-26 18:47 52.67870 -1.02703 8558 ft 238 kts 358°
2026-04-26 18:47 52.69506 -1.02881 8155 ft 232 kts 353°
2026-04-26 18:48 52.71104 -1.03172 7637 ft 231 kts 352°
2026-04-26 18:48 52.72706 -1.03406 7102 ft 231 kts 359°
2026-04-26 18:48 52.74312 -1.03283 6612 ft 230 kts
2026-04-26 18:48 52.75898 -1.03055 6102 ft 227 kts
2026-04-26 18:49 52.77447 -1.02820 5593 ft 226 kts
2026-04-26 18:49 52.79001 -1.02585 5096 ft 223 kts
2026-04-26 18:49 52.80546 -1.02360 4530 ft 223 kts
2026-04-26 18:49 52.82075 -1.02616 3955 ft 220 kts 337°
2026-04-26 18:50 52.83220 -1.04125 3588 ft 208 kts 301°
2026-04-26 18:50 52.83619 -1.06353 3234 ft 202 kts 271°
2026-04-26 18:50 52.83562 -1.08654 2912 ft 199 kts 264°
2026-04-26 18:50 52.83491 -1.10906 2664 ft 193 kts 267°
2026-04-26 18:51 52.83459 -1.13093 2418 ft 188 kts 267°
2026-04-26 18:51 52.83420 -1.15223 2168 ft 183 kts 266°
2026-04-26 18:51 52.83380 -1.17305 1915 ft 179 kts 266°
2026-04-26 18:51 52.83344 -1.19317 1706 ft 170 kts 266°
2026-04-26 18:52 52.83310 -1.21222 1458 ft 160 kts 266°
2026-04-26 18:52 52.83276 -1.22994 1263 ft 151 kts 266°
2026-04-26 18:52 52.83246 -1.24702 1053 ft 151 kts 266°
2026-04-26 18:52 52.83214 -1.26448 854 ft 152 kts 266°
2026-04-26 18:53 52.83176 -1.28208 661 ft 153 kts 266°
2026-04-26 18:53 52.83147 -1.29969 406 ft 153 kts 266°
2026-04-26 18:53 52.83118 -1.31688 315 ft 138 kts 269°
2026-04-26 18:53 52.83095 -1.32999 313 ft 89 kts 267°
2026-04-26 18:54 52.83081 -1.33782 311 ft 57 kts 268°
2026-04-26 18:54 52.83067 -1.34417 306 ft 49 kts 268°
2026-04-26 18:54 52.83063 -1.34757 312 ft 25 kts 268°
2026-04-26 18:54 52.83060 -1.34880 311 ft 5 kts 263°
2026-04-26 18:55 52.83046 -1.34915 313 ft 4 kts 221°
2026-04-26 18:55 52.83000 -1.34932 312 ft 7 kts 185°
2026-04-26 18:55 52.82964 -1.34933 312 ft 4 kts 181°
2026-04-26 18:55 52.82942 -1.34934 312 ft 3 kts 181°
2026-04-26 18:56 52.82925 -1.34937 311 ft 3 kts 193°
2026-04-26 18:56 52.82904 -1.34978 313 ft 5 kts 249°
2026-04-26 18:56 52.82898 -1.35044 309 ft 6 kts 265°
2026-04-26 18:56 52.82895 -1.35114 312 ft 6 kts 266°
2026-04-26 18:57 52.82892 -1.35171 311 ft 4 kts 266°
2026-04-26 18:57 52.82892 -1.35188 310 ft 5 kts 266°
2026-04-26 18:57 52.82867 -1.35249 310 ft 5 kts 205°
2026-04-26 18:57 52.82829 -1.35289 310 ft 7 kts 239°
2026-04-26 18:58 52.82821 -1.35323 310 ft 4 kts 246°
2026-04-26 18:58 52.82808 -1.35337 309 ft 1 kts 194°
2026-04-26 18:58 52.82781 -1.35342 310 ft 7 kts 186°
2026-04-26 18:58 52.82747 -1.35341 307 ft 4 kts 177°
2026-04-26 18:59 52.82736 -1.35341 310 ft 0 kts 177°